| time (UTC) | temp C | wind direction | speed KPH | gust KPH | rain 1hr cm | rain 24hr cm | rain mn cm | humidity % | barometer mb |
| 20260509161510 | 27 | 329 | 4.8 | 16.1 | 0.00 | 0.00 | 0.00 | 58 | 1011.0 |
| 20260509160036 | 27 | 333 | 3.2 | 16.1 | 0.00 | 0.00 | 0.00 | 60 | 1010.9 |
| 20260509154518 | 27 | 299 | 3.2 | 12.9 | 0.00 | 0.00 | 0.00 | 63 | 1011.0 |
| 20260509153047 | 26 | 327 | 3.2 | 12.9 | 0.00 | 0.00 | 0.00 | 64 | 1010.8 |
| 20260509151603 | 26 | 283 | 4.8 | 14.5 | 0.00 | 0.00 | 0.00 | 65 | 1010.8 |
| 20260509151501 | 26 | 286 | 4.8 | 14.5 | 0.00 | 0.00 | 0.00 | 64 | 1010.9 |
| 20260509150033 | 26 | 340 | 4.8 | 14.5 | 0.00 | 0.18 | 0.00 | 64 | 1010.9 |
| 20260509144505 | 26 | 355 | 3.2 | 12.9 | 0.00 | 0.18 | 0.00 | 65 | 1011.0 |
| 20260509143025 | 25 | 303 | 1.6 | 8.0 | 0.00 | 0.18 | 0.00 | 71 | 1011.0 |
| 20260509141555 | 24 | 284 | 4.8 | 9.7 | 0.00 | 0.18 | 0.00 | 76 | 1011.1 |
| 20260509140014 | 23 | 274 | 3.2 | 11.3 | 0.00 | 0.18 | 0.00 | 82 | 1011.2 |
| 20260509134605 | 22 | 266 | 4.8 | 11.3 | 0.00 | 0.18 | 0.00 | 84 | 1011.2 |
| 20260509133010 | 22 | 286 | 1.6 | 9.7 | 0.00 | 0.18 | 0.00 | 86 | 1011.0 |
| 20260509131527 | 21 | 329 | 1.6 | 4.8 | 0.00 | 0.18 | 0.00 | 88 | 1010.9 |
| 20260509130054 | 21 | 360 | 1.6 | 4.8 | 0.00 | 0.18 | 0.00 | 90 | 1011.0 |
| 20260509124513 | 20 | 360 | 1.6 | 8.0 | 0.00 | 0.18 | 0.00 | 91 | 1010.8 |
| 20260509123043 | 19 | 360 | 3.2 | 9.7 | 0.00 | 0.18 | 0.00 | 92 | 1010.7 |
| 20260509121554 | 19 | 360 | 1.6 | 6.4 | 0.00 | 0.18 | 0.00 | 92 | 1010.8 |
| 20260509120022 | 18 | 360 | 0.0 | 4.8 | 0.00 | 0.18 | 0.00 | 92 | 1010.6 |
| 20260509114556 | 18 | 360 | 1.6 | 8.0 | 0.00 | 0.18 | 0.00 | 92 | 1010.5 |
| 20260509113012 | 18 | 360 | 1.6 | 9.7 | 0.00 | 0.18 | 0.00 | 91 | 1010.4 |
| 20260509111551 | 19 | 360 | 1.6 | 8.0 | 0.00 | 0.18 | 0.00 | 91 | 1010.0 |
| 20260509110014 | 19 | 360 | 1.6 | 8.0 | 0.00 | 0.23 | 0.00 | 91 | 1010.1 |
| 20260509104538 | 19 | 360 | 1.6 | 9.7 | 0.00 | 0.23 | 0.00 | 90 | 1009.8 |
| 20260509103057 | 19 | 360 | 1.6 | 4.8 | 0.00 | 0.23 | 0.00 | 90 | 1009.4 |
| 20260509101531 | 19 | 360 | 0.0 | 0.0 | 0.00 | 0.23 | 0.00 | 89 | 1008.9 |
| 20260509100047 | 20 | 360 | 0.0 | 0.0 | 0.00 | 0.41 | 0.00 | 88 | 1008.9 |
| 20260509094558 | 20 | 360 | 0.0 | 0.0 | 0.00 | 0.41 | 0.00 | 87 | 1008.6 |
| 20260509093040 | 20 | 360 | 0.0 | 1.6 | 0.00 | 0.41 | 0.00 | 85 | 1008.4 |
| 20260509091600 | 20 | 360 | 3.2 | 8.0 | 0.00 | 0.41 | 0.00 | 84 | 1008.1 |
| 20260509091501 | 20 | 360 | 4.8 | 8.0 | 0.00 | 0.41 | 0.00 | 84 | 1008.2 |
| 20260509090018 | 21 | 360 | 1.6 | 6.4 | 0.00 | 0.41 | 0.00 | 82 | 1007.8 |
| 20260509084536 | 21 | 360 | 0.0 | 1.6 | 0.00 | 0.41 | 0.00 | 82 | 1007.8 |
| 20260509083056 | 21 | 360 | 0.0 | 20.9 | 0.00 | 0.41 | 0.00 | 81 | 1007.6 |
| 20260509081538 | 21 | 360 | 0.0 | 6.4 | 0.00 | 0.41 | 0.00 | 82 | 1006.1 |
| 20260509080011 | 20 | 360 | 6.4 | 19.3 | 0.00 | 0.41 | 0.00 | 87 | 1006.1 |
| 20260509074529 | 21 | 360 | 8.0 | 16.1 | 0.00 | 0.41 | 0.00 | 89 | 1007.3 |
| 20260509073004 | 21 | 360 | 4.8 | 16.1 | 0.00 | 0.41 | 0.00 | 89 | 1008.8 |
| 20260509071521 | 20 | 360 | 3.2 | 9.7 | 0.00 | 0.41 | 0.00 | 90 | 1009.6 |
| 20260509070051 | 20 | 360 | 3.2 | 9.7 | 0.00 | 0.41 | 0.00 | 90 | 1009.8 |
| 20260509064511 | 20 | 360 | 1.6 | 8.0 | 0.00 | 0.41 | 0.00 | 90 | 1010.4 |
| 20260509063047 | 20 | 360 | 1.6 | 4.8 | 0.00 | 0.41 | 0.00 | 90 | 1010.5 |
| 20260509061622 | 20 | 360 | 0.0 | 3.2 | 0.00 | 0.41 | 0.00 | 90 | 1010.8 |
| 20260509060013 | 20 | 360 | 0.0 | 4.8 | 0.00 | 0.41 | 0.41 | 89 | 1010.9 |
| 20260509054535 | 20 | 360 | 0.0 | 3.2 | 0.00 | 0.41 | 0.41 | 88 | 1010.9 |
| 20260509053007 | 20 | 360 | 0.0 | 6.4 | 0.00 | 0.41 | 0.41 | 87 | 1010.7 |
| 20260509051520 | 20 | 360 | 0.0 | 1.6 | 0.00 | 0.41 | 0.41 | 86 | 1011.2 |
| 20260509050037 | 21 | 360 | 3.2 | 9.7 | 0.00 | 0.41 | 0.41 | 86 | 1012.0 |
| 20260509044546 | 21 | 360 | 4.8 | 14.5 | 0.00 | 0.41 | 0.41 | 85 | 1012.3 |
| 20260509043010 | 21 | 360 | 3.2 | 6.4 | 0.00 | 0.41 | 0.41 | 85 | 1010.4 |
| 20260509041542 | 21 | 360 | 1.6 | 4.8 | 0.00 | 0.41 | 0.41 | 84 | 1010.4 |
| 20260509040100 | 21 | 360 | 3.2 | 8.0 | 0.00 | 0.41 | 0.41 | 84 | 1010.0 |
| 20260509040005 | 21 | 360 | 3.2 | 8.0 | 0.00 | 0.41 | 0.41 | 84 | 1009.9 |
| 20260509034538 | 21 | 360 | 1.6 | 8.0 | 0.00 | 0.41 | 0.41 | 85 | 1009.9 |
| 20260509033048 | 21 | 360 | 3.2 | 8.0 | 0.00 | 0.41 | 0.41 | 85 | 1010.0 |
| 20260509031514 | 21 | 360 | 1.6 | 6.4 | 0.00 | 0.41 | 0.41 | 84 | 1010.3 |
| 20260509030049 | 21 | 360 | 1.6 | 4.8 | 0.00 | 0.41 | 0.41 | 84 | 1010.6 |
| 20260509024506 | 21 | 360 | 0.0 | 6.4 | 0.00 | 0.41 | 0.41 | 83 | 1009.7 |
| 20260509023022 | 21 | 360 | 4.8 | 9.7 | 0.00 | 0.41 | 0.41 | 83 | 1008.9 |
| 20260509021556 | 21 | 360 | 3.2 | 6.4 | 0.00 | 0.41 | 0.41 | 83 | 1008.5 |
| 20260509020020 | 21 | 360 | 3.2 | 8.0 | 0.00 | 0.41 | 0.41 | 82 | 1008.1 |
| 20260509014537 | 22 | 360 | 4.8 | 9.7 | 0.00 | 0.41 | 0.41 | 81 | 1008.1 |
| 20260509013012 | 22 | 360 | 3.2 | 9.7 | 0.00 | 0.41 | 0.41 | 80 | 1008.1 |
| 20260509011542 | 22 | 360 | 3.2 | 6.4 | 0.00 | 0.41 | 0.41 | 79 | 1008.7 |
| 20260509004536 | 22 | 360 | 1.6 | 9.7 | 0.00 | 0.41 | 0.41 | 77 | 1008.6 |
| 20260509003046 | 22 | 360 | 4.8 | 9.7 | 0.00 | 0.41 | 0.41 | 76 | 1008.5 |
| 20260509001600 | 23 | 170 | 6.4 | 16.1 | 0.00 | 0.41 | 0.41 | 75 | 1008.2 |
| 20260509001504 | 23 | 219 | 6.4 | 16.1 | 0.00 | 0.41 | 0.41 | 75 | 1008.2 |
| 20260509000024 | 23 | 140 | 4.8 | 12.9 | 0.00 | 0.41 | 0.41 | 74 | 1008.2 |
| 20260508234558 | 23 | 150 | 3.2 | 16.1 | 0.00 | 0.41 | 0.41 | 74 | 1008.4 |
| 20260508233014 | 24 | 146 | 4.8 | 14.5 | 0.00 | 0.41 | 0.41 | 72 | 1008.5 |
| 20260508231534 | 24 | 170 | 6.4 | 12.9 | 0.00 | 0.41 | 0.41 | 71 | 1008.5 |
| 20260508230052 | 24 | 130 | 8.0 | 14.5 | 0.00 | 0.41 | 0.41 | 69 | 1008.5 |
| 20260508224531 | 25 | 182 | 4.8 | 12.9 | 0.00 | 0.41 | 0.41 | 68 | 1008.5 |
| 20260508223048 | 24 | 172 | 4.8 | 12.9 | 0.00 | 0.41 | 0.41 | 68 | 1008.6 |
| 20260508221513 | 24 | 113 | 4.8 | 14.5 | 0.00 | 0.41 | 0.41 | 68 | 1008.7 |
| 20260508220034 | 25 | 169 | 6.4 | 17.7 | 0.00 | 0.41 | 0.41 | 68 | 1008.7 |
| 20260508214559 | 25 | 128 | 6.4 | 16.1 | 0.00 | 0.41 | 0.41 | 68 | 1008.6 |
| 20260508213018 | 25 | 144 | 4.8 | 16.1 | 0.00 | 0.41 | 0.41 | 69 | 1008.6 |
| 20260508211537 | 24 | 183 | 8.0 | 19.3 | 0.00 | 0.41 | 0.41 | 68 | 1008.9 |
| 20260508210054 | 24 | 177 | 4.8 | 14.5 | 0.00 | 0.41 | 0.41 | 68 | 1008.9 |
| 20260508204534 | 24 | 136 | 6.4 | 16.1 | 0.00 | 0.41 | 0.41 | 68 | 1009.2 |
| 20260508203041 | 24 | 151 | 8.0 | 16.1 | 0.00 | 0.41 | 0.41 | 68 | 1010.0 |
| 20260508201520 | 23 | 128 | 9.7 | 16.1 | 0.00 | 0.41 | 0.41 | 68 | 1010.6 |
| 20260508200049 | 23 | 169 | 4.8 | 12.9 | 0.00 | 0.41 | 0.41 | 68 | 1011.0 |
| 20260508194509 | 23 | 182 | 6.4 | 12.9 | 0.00 | 0.41 | 0.41 | 68 | 1011.0 |
| 20260508193025 | 24 | 164 | 4.8 | 14.5 | 0.00 | 0.41 | 0.41 | 68 | 1010.9 |
| 20260508191514 | 24 | 198 | 4.8 | 14.5 | 0.00 | 0.41 | 0.41 | 69 | 1010.9 |
| 20260508190009 | 25 | 144 | 6.4 | 17.7 | 0.00 | 0.41 | 0.41 | 68 | 1011.2 |
| 20260508184522 | 24 | 222 | 6.4 | 12.9 | 0.00 | 0.41 | 0.41 | 67 | 1011.2 |
| 20260508183056 | 25 | 158 | 3.2 | 8.0 | 0.00 | 0.41 | 0.41 | 68 | 1011.4 |
| 20260508181519 | 23 | 144 | 3.2 | 12.9 | 0.00 | 0.41 | 0.41 | 69 | 1011.6 |
| 20260508180059 | 23 | 174 | 3.2 | 11.3 | 0.00 | 0.41 | 0.41 | 69 | 1012.0 |
| 20260508174511 | 23 | 153 | 6.4 | 14.5 | 0.00 | 0.41 | 0.41 | 71 | 1012.4 |
| 20260508173041 | 22 | 151 | 4.8 | 11.3 | 0.00 | 0.41 | 0.41 | 71 | 1012.5 |
| 20260508171601 | 22 | 165 | 4.8 | 14.5 | 0.00 | 0.41 | 0.41 | 70 | 1012.7 |
| 20260508170036 | 22 | 136 | 6.4 | 12.9 | 0.00 | 0.41 | 0.41 | 72 | 1012.8 |
| 20260508164518 | 21 | 170 | 3.2 | 14.5 | 0.00 | 0.41 | 0.41 | 72 | 1013.0 |
| 20260508163030 | 21 | 130 | 6.4 | 11.3 | 0.00 | 0.41 | 0.41 | 73 | 1013.5 |